Location: Caltech
(34.1382°N, 118.1253°W)
Time: 12:57:46
(UTC-08:00)

Tiros 1 despin weight - Visible Passes

Search period start: 23 February 2017 00:00
Search period end: 05 March 2017 00:00
Orbit: 595 x 644 km, 48.2° (Epoch: 23 February)

Date Brightness Start Highest point End Pass type
(mag) Time Alt. Az. Time Alt. Az. Time Alt. Az.
23 Feb ? 18:10:56 10° NNW 18:13:45 16° N 18:16:36 10° NE visible
23 Feb ? 19:52:01 10° NW 19:54:47 29° NNW 19:54:47 29° NNW visible
24 Feb ? 18:27:54 10° NNW 18:31:21 20° NNE 18:34:16 12° ENE visible
24 Feb ? 20:08:57 10° NW 20:11:22 30° NW 20:11:22 30° NW visible
25 Feb ? 18:44:45 10° NW 18:48:49 29° NNE 18:50:56 21° ENE visible
25 Feb ? 20:26:03 10° WNW 20:28:03 25° WNW 20:28:03 25° WNW visible
26 Feb ? 19:01:37 10° NW 19:06:08 48° NNE 19:07:42 34° E visible
26 Feb ? 20:43:33 10° WNW 20:44:49 17° W 20:44:49 17° W visible
27 Feb ? 19:18:35 10° NW 19:23:17 89° SSW 19:24:35 48° SE visible
28 Feb ? 19:35:51 10° WNW 19:40:16 43° SW 19:41:38 34° S visible
01 Mar ? 18:11:12 10° NW 18:15:50 64° NE 18:20:29 10° ESE visible
01 Mar ? 19:53:40 10° W 19:57:07 20° SW 19:58:50 17° SSW visible
02 Mar ? 18:28:17 10° WNW 18:32:54 65° SW 18:37:32 10° SE visible
03 Mar ? 18:45:44 10° WNW 18:49:49 31° SW 18:53:56 10° SSE visible
04 Mar ? 19:04:07 10° W 19:06:37 14° SW 19:09:06 10° SSW visible
